Hourly Data Report for January 11, 2021

TORONTO CITY
ONTARIO
Current Station Operator: ECCC - MSC

43°40'00.000" N
79°24'00.000" W
112.50 m
6158355
71508
XTO

Download Data

Hourly Data (January 2021)
Hourly Data Report for January 11, 2021
TIME
LST
Temp Definition
°C
Dew Point Definition
°C
Rel Hum Definition
%
Precip. Amount Definition
mm

Wind Dir Definition
10's deg

Wind Spd Definition
km/h
Visibility Definition
km
Stn Press Definition
kPa
Hmdx Definition


Wind Chill Definition


Weather Definition


00:00 -1.8 -5.0 78 0.0       101.16     LegendNANA
01:00 -1.8 -5.2 77 0.0       101.14     LegendNANA
02:00 -2.2 -5.7 77 0.0       101.14     LegendNANA
03:00 -2.7 -5.8 79 0.0       101.14     LegendNANA
04:00 -3.0 -6.0 79 0.0       101.09     LegendNANA
05:00 -2.9 -6.0 79 0.0       101.06     LegendNANA
06:00 -2.6 -6.0 77 0.0       101.04     LegendNANA
07:00 -2.7 -6.0 78 0.0       101.04     LegendNANA
08:00 -2.4 -6.0 77 0.0       101.00     LegendNANA
09:00 -1.8 -5.7 75 0.0       101.02     LegendNANA
10:00 -0.4 -4.7 73 0.0       100.96     LegendNANA
11:00 0.2 -3.9 74 0.0       100.89     LegendNANA
12:00 0.1 -3.3 78 0.0       100.78     LegendNANA
13:00 0.9 -3.4 73 0.0       100.71     LegendNANA
14:00 0.3 -4.1 72 0.0       100.64     LegendNANA
15:00 0.7 -4.0 71 0.0       100.62     LegendNANA
16:00 1.1 -4.6 66 0.0       100.60     LegendNANA
17:00 0.3 -6.1 62 0.0       100.61     LegendNANA
18:00 0.0 -5.8 65 0.0       100.62     LegendNANA
19:00 0.1 -5.8 65 0.0       100.62     LegendNANA
20:00 0.1 -5.9 64 0.0       100.62     LegendNANA
21:00 0.2 -5.5 65 0.0       100.59     LegendNANA
22:00 0.1 -5.4 66 0.0       100.59     LegendNANA
23:00 0.2 -5.3 67 0.0       100.60     LegendNANA

Notes on Data Quality.

Legend

  • E = Estimated
  • M = Missing
  • NA = Not Available*
  • [empty] = Indicates an unobserved value
Date modified: